Saint Bonnet de Bellac- Haute Vienne - France
Donnes mto: dimanche, 08/07/2012
Date Horaire Temp. E. Hum. E. P.atmo. Pluie Vent Direction Direction Ensoleilleme Solaire P. de rose Temp au vent Rafales
08/07/2012 00:00 17,2 C 85 % 1009,9 hPa 0,0 mm 4,0 km/h (1 Bft) O-SO 247 0 min 0 W/m 14,7 C 17,2 C 10,1 km/h (2 Bft)
08/07/2012 00:10 16,9 C 86 % 1009,9 hPa 0,0 mm 1,4 km/h (1 Bft) O 270 0 min 0 W/m 14,5 C 16,9 C 4,0 km/h (1 Bft)
08/07/2012 00:20 16,8 C 86 % 1009,5 hPa 0,0 mm 3,6 km/h (1 Bft) O 270 0 min 0 W/m 14,4 C 16,8 C 3,6 km/h (1 Bft)
08/07/2012 00:30 16,6 C 86 % 1009,1 hPa 0,0 mm 2,9 km/h (1 Bft) O 270 0 min 0 W/m 14,2 C 16,6 C 9,0 km/h (2 Bft)
08/07/2012 00:40 16,4 C 85 % 1009,0 hPa 0,0 mm 0,7 km/h (0 Bft) O-NO 292 0 min 0 W/m 13,9 C 16,4 C 0,7 km/h (0 Bft)
08/07/2012 00:50 16,2 C 85 % 1009,0 hPa 0,0 mm 0,0 km/h (0 Bft) O-SO 247 0 min 0 W/m 13,7 C 16,2 C 0,0 km/h (0 Bft)
08/07/2012 01:00 15,9 C 85 % 1008,7 hPa 0,0 mm 0,0 km/h (0 Bft) S-SO 202 0 min 0 W/m 13,4 C 15,9 C 0,0 km/h (0 Bft)
08/07/2012 01:10 15,6 C 87 % 1008,4 hPa 0,0 mm 1,4 km/h (1 Bft) O-SO 247 0 min 0 W/m 13,4 C 15,6 C 4,3 km/h (1 Bft)
08/07/2012 01:20 15,3 C 87 % 1008,9 hPa 0,0 mm 4,0 km/h (1 Bft) O-SO 247 0 min 0 W/m 13,1 C 15,3 C 4,3 km/h (1 Bft)
08/07/2012 01:30 15,1 C 87 % 1008,6 hPa 0,0 mm 2,5 km/h (1 Bft) SO 225 0 min 0 W/m 13,0 C 15,1 C 4,3 km/h (1 Bft)
08/07/2012 01:40 14,9 C 87 % 1009,2 hPa 0,0 mm 6,1 km/h (2 Bft) O-SO 247 0 min 0 W/m 12,8 C 14,9 C 12,2 km/h (2 Bft)
08/07/2012 01:50 14,9 C 88 % 1009,2 hPa 0,0 mm 5,8 km/h (2 Bft) O-SO 247 0 min 0 W/m 12,9 C 14,9 C 5,8 km/h (2 Bft)
08/07/2012 02:00 15,1 C 89 % 1009,5 hPa 0,0 mm 6,1 km/h (2 Bft) SO 225 0 min 0 W/m 13,3 C 15,1 C 6,1 km/h (2 Bft)
08/07/2012 02:10 15,2 C 89 % 1009,7 hPa 0,0 mm 8,6 km/h (2 Bft) O-SO 247 0 min 0 W/m 13,4 C 15,2 C 8,6 km/h (2 Bft)
08/07/2012 02:20 15,3 C 89 % 1009,8 hPa 0,0 mm 10,8 km/h (2 Bft) S-SO 202 0 min 0 W/m 13,5 C 15,3 C 11,2 km/h (2 Bft)
08/07/2012 02:30 15,4 C 88 % 1009,9 hPa 0,0 mm 8,3 km/h (2 Bft) O 270 0 min 0 W/m 13,4 C 15,4 C 16,2 km/h (3 Bft)
08/07/2012 02:40 15,3 C 87 % 1009,9 hPa 0,0 mm 6,1 km/h (2 Bft) O-SO 247 0 min 0 W/m 13,1 C 15,3 C 10,8 km/h (2 Bft)
08/07/2012 02:50 15,3 C 87 % 1009,9 hPa 0,0 mm 5,8 km/h (2 Bft) O 270 0 min 0 W/m 13,1 C 15,3 C 6,8 km/h (2 Bft)
08/07/2012 03:02 15,1 C 87 % 1010,0 hPa 0,0 mm 7,2 km/h (2 Bft) SO 225 0 min 0 W/m 13,0 C 15,1 C 10,8 km/h (2 Bft)
08/07/2012 03:10 14,9 C 88 % 1009,9 hPa 0,0 mm 7,6 km/h (2 Bft) S-SO 202 0 min 0 W/m 12,9 C 14,9 C 11,2 km/h (2 Bft)
08/07/2012 03:20 14,8 C 88 % 1009,9 hPa 0,0 mm 7,6 km/h (2 Bft) SO 225 0 min 0 W/m 12,8 C 14,8 C 10,1 km/h (2 Bft)
08/07/2012 03:30 14,8 C 88 % 1010,1 hPa 0,0 mm 3,6 km/h (1 Bft) SO 225 0 min 0 W/m 12,8 C 14,8 C 7,6 km/h (2 Bft)
08/07/2012 03:40 14,8 C 88 % 1010,1 hPa 0,0 mm 9,4 km/h (2 Bft) S-SO 202 0 min 0 W/m 12,8 C 14,8 C 10,4 km/h (2 Bft)
08/07/2012 03:50 14,9 C 89 % 1010,1 hPa 0,0 mm 5,0 km/h (1 Bft) SO 225 0 min 0 W/m 13,1 C 14,9 C 5,0 km/h (1 Bft)
08/07/2012 04:00 15,0 C 89 % 1009,9 hPa 0,0 mm 5,8 km/h (2 Bft) S-SO 202 0 min 0 W/m 13,2 C 15,0 C 9,4 km/h (2 Bft)
08/07/2012 04:10 14,9 C 88 % 1009,9 hPa 0,0 mm 9,7 km/h (2 Bft) SO 225 0 min 0 W/m 12,9 C 14,9 C 13,0 km/h (3 Bft)
08/07/2012 04:20 14,9 C 89 % 1009,8 hPa 0,0 mm 8,3 km/h (2 Bft) S 180 0 min 0 W/m 13,1 C 14,9 C 15,5 km/h (3 Bft)
08/07/2012 04:30 14,9 C 89 % 1009,8 hPa 0,0 mm 10,4 km/h (2 Bft) S-SO 202 0 min 0 W/m 13,1 C 14,9 C 15,5 km/h (3 Bft)
08/07/2012 04:40 14,9 C 89 % 1009,9 hPa 0,0 mm 10,4 km/h (2 Bft) O 270 0 min 0 W/m 13,1 C 14,9 C 12,6 km/h (3 Bft)
08/07/2012 04:50 15,1 C 89 % 1009,9 hPa 0,0 mm 11,2 km/h (2 Bft) S-SO 202 0 min 0 W/m 13,3 C 15,1 C 13,7 km/h (3 Bft)
08/07/2012 05:00 15,1 C 89 % 1009,9 hPa 0,0 mm 5,8 km/h (2 Bft) O-SO 247 0 min 0 W/m 13,3 C 15,1 C 9,7 km/h (2 Bft)
08/07/2012 05:10 15,1 C 89 % 1010,0 hPa 0,0 mm 10,1 km/h (2 Bft) SO 225 0 min 0 W/m 13,3 C 15,1 C 24,8 km/h (4 Bft)
08/07/2012 05:20 15,0 C 90 % 1010,1 hPa 0,1 mm 7,6 km/h (2 Bft) SO 225 0 min 0 W/m 13,4 C 15,0 C 11,5 km/h (2 Bft)
08/07/2012 05:30 14,9 C 90 % 1010,1 hPa 0,0 mm 7,6 km/h (2 Bft) SO 225 0 min 0 W/m 13,3 C 14,9 C 11,9 km/h (2 Bft)
08/07/2012 05:40 14,9 C 90 % 1010,2 hPa 0,0 mm 7,9 km/h (2 Bft) O-SO 247 0 min 0 W/m 13,3 C 14,9 C 18,0 km/h (3 Bft)
08/07/2012 05:50 14,9 C 91 % 1010,3 hPa 0,0 mm 8,6 km/h (2 Bft) SO 225 0 min 0 W/m 13,4 C 14,9 C 13,7 km/h (3 Bft)
08/07/2012 06:00 14,9 C 91 % 1010,3 hPa 0,0 mm 10,8 km/h (2 Bft) S-SO 202 0 min 0 W/m 13,4 C 14,9 C 18,0 km/h (3 Bft)
08/07/2012 06:10 14,9 C 91 % 1010,4 hPa 0,0 mm 9,0 km/h (2 Bft) SO 225 0 min 0 W/m 13,4 C 14,9 C 12,2 km/h (2 Bft)
08/07/2012 06:20 14,8 C 91 % 1010,5 hPa 0,0 mm 5,8 km/h (2 Bft) O-SO 247 0 min 0 W/m 13,3 C 14,8 C 10,8 km/h (2 Bft)
08/07/2012 06:30 14,8 C 91 % 1010,6 hPa 0,0 mm 8,3 km/h (2 Bft) SO 225 0 min 0 W/m 13,3 C 14,8 C 10,8 km/h (2 Bft)
08/07/2012 06:40 14,9 C 91 % 1010,7 hPa 0,0 mm 5,4 km/h (2 Bft) SO 225 0 min 0 W/m 13,4 C 14,9 C 9,0 km/h (2 Bft)
08/07/2012 06:50 14,9 C 91 % 1010,7 hPa 0,0 mm 6,8 km/h (2 Bft) S-SO 202 0 min 0 W/m 13,4 C 14,9 C 7,2 km/h (2 Bft)
08/07/2012 07:00 14,9 C 91 % 1010,7 hPa 0,0 mm 10,4 km/h (2 Bft) SO 225 0 min 0 W/m 13,4 C 14,9 C 17,6 km/h (3 Bft)
08/07/2012 07:10 15,0 C 90 % 1010,9 hPa 0,0 mm 8,3 km/h (2 Bft) S-SO 202 0 min 0 W/m 13,4 C 15,0 C 9,7 km/h (2 Bft)
08/07/2012 07:20 15,1 C 90 % 1011,0 hPa 0,0 mm 8,6 km/h (2 Bft) S 180 0 min 0 W/m 13,5 C 15,1 C 8,6 km/h (2 Bft)
08/07/2012 07:30 15,1 C 90 % 1011,2 hPa 0,0 mm 3,2 km/h (1 Bft) SO 225 0 min 0 W/m 13,5 C 15,1 C 7,9 km/h (2 Bft)
08/07/2012 07:40 15,2 C 89 % 1011,1 hPa 0,0 mm 10,1 km/h (2 Bft) S-SO 202 0 min 0 W/m 13,4 C 15,2 C 11,9 km/h (2 Bft)
08/07/2012 07:50 15,3 C 89 % 1011,1 hPa 0,0 mm 5,8 km/h (2 Bft) SO 225 0 min 0 W/m 13,5 C 15,3 C 8,6 km/h (2 Bft)
08/07/2012 08:00 15,8 C 87 % 1011,1 hPa 0,0 mm 9,4 km/h (2 Bft) S-SE 157 0 min 0 W/m 13,6 C 15,8 C 12,6 km/h (3 Bft)
08/07/2012 08:10 15,8 C 86 % 1011,2 hPa 0,0 mm 11,2 km/h (2 Bft) S 180 0 min 0 W/m 13,5 C 15,8 C 19,1 km/h (3 Bft)
08/07/2012 08:20 15,8 C 86 % 1011,2 hPa 0,0 mm 7,6 km/h (2 Bft) S-SO 202 0 min 0 W/m 13,5 C 15,8 C 14,4 km/h (3 Bft)
08/07/2012 08:30 15,8 C 86 % 1011,1 hPa 0,0 mm 9,7 km/h (2 Bft) SO 225 0 min 0 W/m 13,5 C 15,8 C 12,2 km/h (2 Bft)
08/07/2012 08:40 15,9 C 86 % 1011,3 hPa 0,0 mm 14,0 km/h (3 Bft) O 270 0 min 0 W/m 13,6 C 15,9 C 26,3 km/h (4 Bft)
08/07/2012 08:50 15,9 C 86 % 1011,3 hPa 0,0 mm 6,8 km/h (2 Bft) S-SO 202 0 min 0 W/m 13,6 C 15,9 C 10,1 km/h (2 Bft)
08/07/2012 09:00 16,0 C 86 % 1011,3 hPa 0,0 mm 9,4 km/h (2 Bft) S 180 0 min 0 W/m 13,7 C 16,0 C 11,5 km/h (2 Bft)
08/07/2012 09:10 16,0 C 86 % 1011,4 hPa 0,0 mm 16,2 km/h (3 Bft) S-SO 202 0 min 0 W/m 13,7 C 16,0 C 21,6 km/h (4 Bft)
08/07/2012 09:20 15,9 C 87 % 1011,5 hPa 0,0 mm 9,4 km/h (2 Bft) S-SO 202 0 min 0 W/m 13,7 C 15,9 C 16,6 km/h (3 Bft)
08/07/2012 09:30 15,8 C 88 % 1011,6 hPa 0,0 mm 7,6 km/h (2 Bft) O-SO 247 0 min 0 W/m 13,8 C 15,8 C 10,1 km/h (2 Bft)
08/07/2012 09:40 15,6 C 89 % 1011,7 hPa 0,1 mm 7,2 km/h (2 Bft) O-SO 247 0 min 0 W/m 13,8 C 15,6 C 7,2 km/h (2 Bft)
08/07/2012 09:50 15,6 C 89 % 1011,9 hPa 0,0 mm 4,0 km/h (1 Bft) SO 225 0 min 0 W/m 13,8 C 15,6 C 9,7 km/h (2 Bft)
08/07/2012 10:00 15,6 C 89 % 1012,2 hPa 0,0 mm 4,7 km/h (1 Bft) S-SO 202 0 min 0 W/m 13,8 C 15,6 C 10,1 km/h (2 Bft)
08/07/2012 10:10 15,3 C 88 % 1012,4 hPa 0,0 mm 4,3 km/h (1 Bft) SO 225 0 min 0 W/m 13,3 C 15,3 C 8,6 km/h (2 Bft)
08/07/2012 10:20 15,1 C 88 % 1012,4 hPa 0,1 mm 1,1 km/h (1 Bft) S-SO 202 0 min 0 W/m 13,1 C 15,1 C 3,6 km/h (1 Bft)
08/07/2012 10:30 15,1 C 89 % 1012,4 hPa 0,0 mm 4,0 km/h (1 Bft) SO 225 0 min 0 W/m 13,3 C 15,1 C 8,6 km/h (2 Bft)
08/07/2012 10:40 15,3 C 89 % 1012,5 hPa 0,0 mm 4,7 km/h (1 Bft) SO 225 0 min 0 W/m 13,5 C 15,3 C 7,2 km/h (2 Bft)
08/07/2012 10:50 15,3 C 89 % 1012,7 hPa 0,0 mm 2,9 km/h (1 Bft) S-SO 202 0 min 0 W/m 13,5 C 15,3 C 6,1 km/h (2 Bft)
08/07/2012 11:00 15,4 C 89 % 1012,7 hPa 0,0 mm 2,2 km/h (1 Bft) O-SO 247 0 min 0 W/m 13,6 C 15,4 C 2,2 km/h (1 Bft)
08/07/2012 11:10 15,8 C 90 % 1012,9 hPa 0,0 mm 5,8 km/h (2 Bft) SO 225 0 min 0 W/m 14,2 C 15,8 C 8,3 km/h (2 Bft)
08/07/2012 11:20 16,3 C 89 % 1012,8 hPa 0,0 mm 1,8 km/h (1 Bft) SO 225 0 min 0 W/m 14,5 C 16,3 C 4,0 km/h (1 Bft)
08/07/2012 11:30 17,4 C 88 % 1013,0 hPa 0,0 mm 5,8 km/h (2 Bft) SO 225 0 min 0 W/m 15,4 C 17,4 C 7,9 km/h (2 Bft)
08/07/2012 11:40 17,8 C 83 % 1013,0 hPa 0,0 mm 7,9 km/h (2 Bft) SO 225 0 min 0 W/m 14,9 C 17,8 C 12,6 km/h (3 Bft)
08/07/2012 11:50 17,6 C 82 % 1013,2 hPa 0,0 mm 8,6 km/h (2 Bft) SO 225 0 min 0 W/m 14,5 C 17,6 C 15,8 km/h (3 Bft)
08/07/2012 12:00 17,4 C 80 % 1013,2 hPa 0,0 mm 7,6 km/h (2 Bft) SO 225 0 min 0 W/m 13,9 C 17,4 C 11,5 km/h (2 Bft)
08/07/2012 12:10 17,6 C 78 % 1013,3 hPa 0,0 mm 5,0 km/h (1 Bft) O-SO 247 0 min 0 W/m 13,7 C 17,6 C 5,0 km/h (1 Bft)
08/07/2012 12:20 18,1 C 78 % 1013,3 hPa 0,0 mm 9,4 km/h (2 Bft) SO 225 0 min 0 W/m 14,2 C 18,1 C 10,8 km/h (2 Bft)
08/07/2012 12:30 18,8 C 77 % 1013,5 hPa 0,0 mm 4,3 km/h (1 Bft) SO 225 0 min 0 W/m 14,7 C 18,8 C 6,8 km/h (2 Bft)
08/07/2012 12:40 19,3 C 73 % 1013,5 hPa 0,0 mm 4,0 km/h (1 Bft) O-SO 247 0 min 0 W/m 14,3 C 19,3 C 6,8 km/h (2 Bft)
08/07/2012 12:50 19,8 C 73 % 1013,6 hPa 0,0 mm 8,6 km/h (2 Bft) O 270 0 min 0 W/m 14,8 C 19,8 C 17,6 km/h (3 Bft)
08/07/2012 13:00 20,3 C 69 % 1013,5 hPa 0,0 mm 14,4 km/h (3 Bft) S-SO 202 0 min 0 W/m 14,4 C 20,3 C 22,0 km/h (4 Bft)
08/07/2012 13:10 20,4 C 66 % 1013,5 hPa 0,0 mm 8,6 km/h (2 Bft) SO 225 0 min 0 W/m 13,8 C 20,4 C 13,3 km/h (3 Bft)
08/07/2012 13:20 20,5 C 69 % 1013,6 hPa 0,0 mm 7,9 km/h (2 Bft) O-SO 247 0 min 0 W/m 14,6 C 20,5 C 11,5 km/h (2 Bft)
08/07/2012 13:30 20,5 C 68 % 1013,7 hPa 0,0 mm 7,2 km/h (2 Bft) S-SO 202 0 min 0 W/m 14,4 C 20,5 C 10,1 km/h (2 Bft)
08/07/2012 13:40 20,8 C 65 % 1013,7 hPa 0,0 mm 6,8 km/h (2 Bft) O 270 0 min 0 W/m 14,0 C 20,8 C 10,4 km/h (2 Bft)
08/07/2012 13:50 20,8 C 66 % 1013,7 hPa 0,0 mm 3,2 km/h (1 Bft) S 180 0 min 0 W/m 14,2 C 20,8 C 6,5 km/h (2 Bft)
08/07/2012 14:00 21,0 C 65 % 1013,6 hPa 0,0 mm 7,6 km/h (2 Bft) O-SO 247 0 min 0 W/m 14,2 C 21,0 C 12,2 km/h (2 Bft)
08/07/2012 14:10 21,4 C 63 % 1013,8 hPa 0,0 mm 8,6 km/h (2 Bft) S-SO 202 0 min 0 W/m 14,1 C 21,4 C 11,5 km/h (2 Bft)
08/07/2012 14:20 21,5 C 61 % 1013,8 hPa 0,0 mm 9,4 km/h (2 Bft) O-SO 247 0 min 0 W/m 13,7 C 21,5 C 9,4 km/h (2 Bft)
08/07/2012 14:30 21,6 C 60 % 1013,8 hPa 0,0 mm 6,1 km/h (2 Bft) SO 225 0 min 0 W/m 13,5 C 21,6 C 7,2 km/h (2 Bft)
08/07/2012 14:40 21,9 C 61 % 1013,8 hPa 0,0 mm 6,8 km/h (2 Bft) S-SO 202 0 min 0 W/m 14,0 C 21,9 C 9,4 km/h (2 Bft)
08/07/2012 14:50 21,9 C 59 % 1013,9 hPa 0,0 mm 9,4 km/h (2 Bft) O 270 0 min 0 W/m 13,5 C 21,9 C 11,9 km/h (2 Bft)
08/07/2012 15:00 21,9 C 60 % 1013,9 hPa 0,0 mm 6,5 km/h (2 Bft) S-SO 202 0 min 0 W/m 13,8 C 21,9 C 7,2 km/h (2 Bft)
08/07/2012 15:10 21,7 C 59 % 1014,0 hPa 0,0 mm 2,9 km/h (1 Bft) SO 225 0 min 0 W/m 13,3 C 21,7 C 3,6 km/h (1 Bft)
08/07/2012 15:20 21,8 C 59 % 1014,0 hPa 0,0 mm 6,1 km/h (2 Bft) SO 225 0 min 0 W/m 13,4 C 21,8 C 10,8 km/h (2 Bft)
08/07/2012 15:30 21,8 C 59 % 1014,0 hPa 0,0 mm 4,3 km/h (1 Bft) O-SO 247 0 min 0 W/m 13,4 C 21,8 C 8,3 km/h (2 Bft)
08/07/2012 15:40 21,8 C 60 % 1014,0 hPa 0,0 mm 3,2 km/h (1 Bft) SO 225 0 min 0 W/m 13,7 C 21,8 C 9,0 km/h (2 Bft)
08/07/2012 15:50 22,1 C 58 % 1014,0 hPa 0,0 mm 9,4 km/h (2 Bft) O-SO 247 0 min 0 W/m 13,4 C 22,1 C 13,7 km/h (3 Bft)
08/07/2012 16:00 22,3 C 56 % 1014,0 hPa 0,0 mm 6,5 km/h (2 Bft) S-SE 157 0 min 0 W/m 13,1 C 22,3 C 10,8 km/h (2 Bft)
08/07/2012 16:10 22,1 C 57 % 1014,1 hPa 0,0 mm 14,8 km/h (3 Bft) SO 225 0 min 0 W/m 13,2 C 22,1 C 21,2 km/h (4 Bft)
08/07/2012 16:20 22,1 C 56 % 1014,1 hPa 0,0 mm 5,8 km/h (2 Bft) O 270 0 min 0 W/m 12,9 C 22,1 C 5,8 km/h (2 Bft)
08/07/2012 16:30 22,2 C 57 % 1014,2 hPa 0,0 mm 7,6 km/h (2 Bft) SO 225 0 min 0 W/m 13,3 C 22,2 C 15,1 km/h (3 Bft)
08/07/2012 16:40 22,1 C 57 % 1014,2 hPa 0,0 mm 10,4 km/h (2 Bft) SO 225 0 min 0 W/m 13,2 C 22,1 C 10,4 km/h (2 Bft)
08/07/2012 16:50 21,9 C 57 % 1014,1 hPa 0,0 mm 8,3 km/h (2 Bft) SO 225 0 min 0 W/m 13,0 C 21,9 C 8,6 km/h (2 Bft)
08/07/2012 17:00 21,7 C 59 % 1014,2 hPa 0,0 mm 6,5 km/h (2 Bft) SO 225 0 min 0 W/m 13,3 C 21,7 C 10,4 km/h (2 Bft)
08/07/2012 17:10 21,5 C 60 % 1014,2 hPa 0,0 mm 3,2 km/h (1 Bft) SO 225 0 min 0 W/m 13,4 C 21,5 C 6,8 km/h (2 Bft)
08/07/2012 17:20 21,6 C 60 % 1014,2 hPa 0,0 mm 3,2 km/h (1 Bft) O-SO 247 0 min 0 W/m 13,5 C 21,6 C 8,6 km/h (2 Bft)
08/07/2012 17:30 21,8 C 60 % 1014,2 hPa 0,0 mm 8,3 km/h (2 Bft) SO 225 0 min 0 W/m 13,7 C 21,8 C 8,3 km/h (2 Bft)
08/07/2012 17:40 21,8 C 60 % 1014,3 hPa 0,0 mm 3,6 km/h (1 Bft) S-SO 202 0 min 0 W/m 13,7 C 21,8 C 3,6 km/h (1 Bft)
08/07/2012 17:50 21,6 C 61 % 1014,2 hPa 0,0 mm 5,4 km/h (2 Bft) O-SO 247 0 min 0 W/m 13,7 C 21,6 C 11,9 km/h (2 Bft)
08/07/2012 18:00 21,4 C 61 % 1014,2 hPa 0,0 mm 6,5 km/h (2 Bft) S-SO 202 0 min 0 W/m 13,6 C 21,4 C 6,8 km/h (2 Bft)
08/07/2012 18:10 21,3 C 62 % 1014,2 hPa 0,0 mm 5,8 km/h (2 Bft) O-SO 247 0 min 0 W/m 13,7 C 21,3 C 8,6 km/h (2 Bft)
08/07/2012 18:20 21,3 C 62 % 1014,1 hPa 0,0 mm 2,2 km/h (1 Bft) S-SO 202 0 min 0 W/m 13,7 C 21,3 C 4,3 km/h (1 Bft)
08/07/2012 18:30 21,3 C 62 % 1014,1 hPa 0,0 mm 11,9 km/h (2 Bft) S-SO 202 0 min 0 W/m 13,7 C 21,3 C 18,0 km/h (3 Bft)
08/07/2012 18:40 21,1 C 63 % 1014,2 hPa 0,0 mm 1,8 km/h (1 Bft) SO 225 0 min 0 W/m 13,8 C 21,1 C 4,0 km/h (1 Bft)
08/07/2012 18:50 20,9 C 63 % 1014,2 hPa 0,0 mm 5,4 km/h (2 Bft) SO 225 0 min 0 W/m 13,6 C 20,9 C 10,4 km/h (2 Bft)
08/07/2012 19:00 20,9 C 64 % 1014,1 hPa 0,0 mm 3,2 km/h (1 Bft) O-SO 247 0 min 0 W/m 13,8 C 20,9 C 7,6 km/h (2 Bft)
08/07/2012 19:10 20,8 C 64 % 1014,2 hPa 0,0 mm 4,7 km/h (1 Bft) O 270 0 min 0 W/m 13,7 C 20,8 C 4,7 km/h (1 Bft)
08/07/2012 19:20 21,1 C 65 % 1014,1 hPa 0,0 mm 0,4 km/h (0 Bft) O-SO 247 0 min 0 W/m 14,3 C 21,1 C 3,2 km/h (1 Bft)
08/07/2012 19:30 21,3 C 64 % 1014,1 hPa 0,0 mm 2,2 km/h (1 Bft) O-SO 247 0 min 0 W/m 14,2 C 21,3 C 7,6 km/h (2 Bft)
08/07/2012 19:40 21,2 C 64 % 1014,1 hPa 0,0 mm 0,4 km/h (0 Bft) O-SO 247 0 min 0 W/m 14,1 C 21,2 C 3,2 km/h (1 Bft)
08/07/2012 19:50 21,0 C 64 % 1014,1 hPa 0,0 mm 0,0 km/h (0 Bft) O-SO 247 0 min 0 W/m 13,9 C 21,0 C 3,6 km/h (1 Bft)
08/07/2012 20:00 20,8 C 65 % 1014,1 hPa 0,0 mm 0,0 km/h (0 Bft) O-SO 247 0 min 0 W/m 14,0 C 20,8 C 0,0 km/h (0 Bft)
08/07/2012 20:10 20,4 C 66 % 1014,2 hPa 0,0 mm 0,7 km/h (0 Bft) O-SO 247 0 min 0 W/m 13,8 C 20,4 C 0,7 km/h (0 Bft)
08/07/2012 20:20 20,2 C 67 % 1014,3 hPa 0,0 mm 1,8 km/h (1 Bft) SO 225 0 min 0 W/m 13,9 C 20,2 C 4,0 km/h (1 Bft)
08/07/2012 20:30 19,9 C 69 % 1014,4 hPa 0,0 mm 1,4 km/h (1 Bft) O-SO 247 0 min 0 W/m 14,0 C 19,9 C 4,3 km/h (1 Bft)
08/07/2012 20:40 19,7 C 69 % 1014,4 hPa 0,0 mm 1,4 km/h (1 Bft) O-SO 247 0 min 0 W/m 13,8 C 19,7 C 7,2 km/h (2 Bft)
08/07/2012 20:50 19,4 C 70 % 1014,5 hPa 0,0 mm 6,1 km/h (2 Bft) O-SO 247 0 min 0 W/m 13,8 C 19,4 C 15,5 km/h (3 Bft)
08/07/2012 21:00 19,2 C 70 % 1014,5 hPa 0,0 mm 2,5 km/h (1 Bft) O-SO 247 0 min 0 W/m 13,6 C 19,2 C 6,5 km/h (2 Bft)
08/07/2012 21:10 19,1 C 71 % 1014,6 hPa 0,0 mm 4,0 km/h (1 Bft) SO 225 0 min 0 W/m 13,7 C 19,1 C 4,3 km/h (1 Bft)
08/07/2012 21:20 18,8 C 72 % 1014,7 hPa 0,0 mm 3,6 km/h (1 Bft) O 270 0 min 0 W/m 13,6 C 18,8 C 9,4 km/h (2 Bft)
08/07/2012 21:30 18,8 C 73 % 1014,8 hPa 0,0 mm 2,5 km/h (1 Bft) SO 225 0 min 0 W/m 13,9 C 18,8 C 6,5 km/h (2 Bft)
08/07/2012 21:40 18,6 C 74 % 1014,9 hPa 0,0 mm 6,1 km/h (2 Bft) O-SO 247 0 min 0 W/m 13,9 C 18,6 C 10,8 km/h (2 Bft)
08/07/2012 21:50 18,4 C 74 % 1014,9 hPa 0,0 mm 6,1 km/h (2 Bft) N 360 0 min 0 W/m 13,7 C 18,4 C 6,1 km/h (2 Bft)
08/07/2012 22:00 18,3 C 75 % 1015,0 hPa 0,0 mm 0,0 km/h (0 Bft) SO 225 0 min 0 W/m 13,8 C 18,3 C 3,6 km/h (1 Bft)
08/07/2012 22:10 18,2 C 76 % 1015,0 hPa 0,0 mm 2,5 km/h (1 Bft) SO 225 0 min 0 W/m 13,9 C 18,2 C 6,8 km/h (2 Bft)
08/07/2012 22:20 18,0 C 76 % 1015,2 hPa 0,0 mm 1,8 km/h (1 Bft) SO 225 0 min 0 W/m 13,7 C 18,0 C 4,0 km/h (1 Bft)
08/07/2012 22:30 17,8 C 76 % 1015,3 hPa 0,0 mm 2,2 km/h (1 Bft) SO 225 0 min 0 W/m 13,5 C 17,8 C 4,0 km/h (1 Bft)
08/07/2012 22:40 17,5 C 77 % 1015,5 hPa 0,0 mm 2,9 km/h (1 Bft) O-SO 247 0 min 0 W/m 13,4 C 17,5 C 6,8 km/h (2 Bft)
08/07/2012 22:50 17,3 C 77 % 1015,6 hPa 0,0 mm 1,1 km/h (1 Bft) SO 225 0 min 0 W/m 13,2 C 17,3 C 3,6 km/h (1 Bft)
08/07/2012 23:00 17,1 C 78 % 1015,6 hPa 0,0 mm 3,2 km/h (1 Bft) O-SO 247 0 min 0 W/m 13,2 C 17,1 C 4,3 km/h (1 Bft)
08/07/2012 23:10 16,9 C 79 % 1015,7 hPa 0,0 mm 2,5 km/h (1 Bft) S-SO 202 0 min 0 W/m 13,2 C 16,9 C 4,3 km/h (1 Bft)
08/07/2012 23:20 16,9 C 80 % 1015,7 hPa 0,0 mm 1,1 km/h (1 Bft) SO 225 0 min 0 W/m 13,4 C 16,9 C 1,4 km/h (1 Bft)
08/07/2012 23:30 16,9 C 80 % 1015,6 hPa 0,0 mm 1,4 km/h (1 Bft) SO 225 0 min 0 W/m 13,4 C 16,9 C 1,4 km/h (1 Bft)
08/07/2012 23:40 16,9 C 80 % 1015,7 hPa 0,0 mm 4,3 km/h (1 Bft) S-SO 202 0 min 0 W/m 13,4 C 16,9 C 7,2 km/h (2 Bft)
08/07/2012 23:50 16,8 C 80 % 1015,7 hPa 0,0 mm 0,4 km/h (0 Bft) S-SO 202 0 min 0 W/m 13,3 C 16,8 C 0,4 km/h (0 Bft)
_ Min-Heure 06:30 16:20 01:10 - 22:00 - - - - 01:40 06:30 20:00
Minimum _ 14,8 C 56 % 1008,4 hPa - 0,0 km/h (0 Bft) - - - - 12,8 C 14,8 C 0,0 km/h (0 Bft)
_ Max-Heure 16:00 07:00 23:50 10:20 09:10 - - 23:50 23:50 11:30 16:00 08:40
Maximum _ 22,3 C 91 % 1015,7 hPa 0,1 mm 16,2 km/h
S-SO (3 Bft)
- - 0 min 0 W/m 15,4 C 22,3 C 26,3 km/h
O (4 Bft)
Moyenne _ 17,8 C 77 % 1012,5 hPa #0,3 mm 5,8 km/h (2 Bft) SO - #0 min. 0 W/m 13,6 C 17,8 C 9,1 km/h (2 Bft)
Saint Bonnet de Bellac- Haute Vienne - France